Regional Weather Roundup
Issued by NWS

Home | Current Version | Previous Version | Text Only | Print | Product List | Glossary Off
Versions: 1 2 3 4 5 6 7 8 9 10 11 12 13 14 15 16 17 18 19 20 21 22 23 24 25 26 27 28 29 30 31 32 33 34 35 36 37 38 39 40 41 42 43 44 45 46 47 48 49 50

000
ASUS45 KCYS 240810
RWRWY

WYOMING REGIONAL WEATHER ROUNDUP
NATIONAL WEATHER SERVICE CHEYENNE WY
200 AM MDT SUN MAY 24 2015

NOTE:  "FAIR" INDICATES FEW OR NO CLOUDS BELOW 12,000 FEET
WITH NO SIGNIFICANT WEATHER AND/OR OBSTRUCTIONS TO VISIBILITY.

WYZ001-240900-
YELLOWSTONE NATIONAL PARK

CITY           SKY/WX    TMP DP  RH WIND       PRES   REMARKS
LK YELLOWSTONE   N/A     37  33  85 CALM      30.10S
W YELLOWSTONE  NOT AVBL

$$
WYZ002>013-054>058-071-098>099-240900-
NORTHERN WYOMING

CITY           SKY/WX    TMP DP  RH WIND       PRES   REMARKS
JACKSON        FAIR      41  39  93 N13       30.01F
CODY           CLOUDY    46  41  81 N9        30.04F
GREYBULL       CLOUDY    51  48  89 NW8       29.98S
WORLAND        CLOUDY    50  48  93 W3        29.98S
SHERIDAN       CLOUDY    49  47  93 N6        30.03S
BUFFALO        CLOUDY    48  46  93 NW9       30.03S
GILLETTE       LGT RAIN  50  48  93 N8        29.99F
HULETT         CLOUDY    50  48  93 E12G17    30.01F FOG
NEWCASTLE      LGT RAIN  50  50 100 CALM      29.98F

$$
WYZ014>020-022>026-101>103-240900-
CENTRAL WYOMING

CITY           SKY/WX    TMP DP  RH WIND       PRES   REMARKS
BIG PINEY      CLOUDY    41  38  89 N6        30.02S
PINEDALE       PTSUNNY   39  37  93 NW3       30.03S
DUBOIS         CLOUDY    37  36  93 W5        30.04S WCI  34
LANDER         CLOUDY    46  43  89 NW7       29.98F
RIVERTON       LGT RAIN  47  44  90 N13       30.00F
CASPER         RAIN      45  43  93 NE10      29.96S
DOUGLAS        HVY RAIN  47  46  97 W6        29.95F FOG

$$
WYZ021-027>030-104>119-240900-
SOUTHERN WYOMING

CITY           SKY/WX    TMP DP  RH WIND       PRES   REMARKS
EVANSTON       CLOUDY    39  36  89 SW6       30.02S WCI  35
KEMMERER       CLOUDY    41  36  81 N7        30.03F
FORT BRIDGER   DRIZZLE   43  41  93 SW8       30.04S
ROCK SPRINGS   CLOUDY    43  38  82 E10       30.00R
DIXON          CLOUDY    44  38  81 CALM      30.01S
RAWLINS        LGT SNOW  33  32  96 CALM      30.00S FOG
SARATOGA       LGT RAIN  37  37 100 N3        30.00S
LARAMIE        CLOUDY    38  32  79 E3        29.96F
CHEYENNE       FAIR      43  39  86 CALM      29.94S
TORRINGTON     LGT RAIN  51  51 100 SE7       29.91S
PINE BLUFFS    CLOUDY    45  45 100 S6        29.94F FOG

$$


USA.gov is the U.S. government's official web portal to all federal, state and local government web resources and services.